Weather History for Juliana Airport, St. Martin

Change the Weather History Date:

Wednesday, September 26, 2012

  Actual Average Record
Temperature  
Mean Temperature 85 °F -  
Max Temperature 90 °F 86 °F 91 °F (2001)
Min Temperature 80 °F 76 °F 77 °F (2008)
Cooling Degree Days 20    
Growing Degree Days 35 (Base 50)    
Moisture  
Dew Point 73 °F    
Average Humidity 67    
Maximum Humidity 79    
Minimum Humidity 43    
Precipitation  
Precipitation 0.00 in 0.15 in - ()
Sea Level Pressure  
Sea Level Pressure 29.95 in    
Wind  
Wind Speed 7 mph ()    
Max Wind Speed 12 mph    
Max Gust Speed -    
Visibility 7.3 miles    
Events Rain , Thunderstorm    
Averages and records for this station are not official NWS values.
T = Trace of Precipitation, MM = Missing Value Source: Averaged Metar Reports

Daily Weather History Graph

Daily Weather History Graph

Search for Another Location

Airport:

Trip Planner

Search our weather history database for the weather conditions in past years. The results will help you decide how hot, cold, wet, or windy it might be!

Date:

Astronomy

Sep. 26, 2012 Rise Set
Actual Time 6:02 AM AST 6:04 PM AST
Civil Twilight 5:40 AM AST 6:26 PM AST
Nautical Twilight 5:15 AM AST 6:51 PM AST
Astronomical Twilight 4:49 AM AST 7:17 PM AST
Moon 3:41 PM AST (9/26) 2:49 AM AST (9/26)
Length of Visible Light 12h 46m
Length of Day
12h 02m
Waxing Gibbous, 88% of the Moon is Illuminated
Sep 26
Waxing Gibbous
Sep 29
Full
Oct 8
Last Quarter
Oct 15
New
Oct 21
First Quarter

Hourly Weather History & Observations

Time (AST) Temp. Heat Index Dew Point Humidity Pressure Visibility Wind Dir Wind Speed Gust Speed Precip Events Conditions
12:00 AM 82.4 °F 88.2 °F 73.4 °F 74% 29.95 in 6.2 mi ENE 5.8 mph - N/A   Partly Cloudy
1:00 AM 82.4 °F 89.5 °F 75.2 °F 79% 29.95 in 6.2 mi East 5.8 mph - N/A   Scattered Clouds
2:00 AM 82 °F - 74 °F 72% 29.94 in 19 mi ENE 6.9 mph - -   Partly Cloudy
2:00 AM 82.4 °F 89.5 °F 75.2 °F 79% 29.92 in 6.2 mi ENE 6.9 mph - N/A   Scattered Clouds
3:00 AM 82.4 °F 88.2 °F 73.4 °F 74% 29.92 in 6.2 mi ENE 6.9 mph - N/A   Scattered Clouds
5:00 AM 82.4 °F 88.2 °F 73.4 °F 74% 29.92 in 6.2 mi East 6.9 mph - N/A   Partly Cloudy
6:00 AM 80.6 °F 85.4 °F 73.4 °F 79% 29.95 in 6.2 mi East 6.9 mph - N/A   Partly Cloudy
8:00 AM 85 °F - 74 °F 63% 29.98 in 34 mi East 9.2 mph - -   Partly Cloudy
8:00 AM 84.2 °F 90.9 °F 73.4 °F 70% 29.98 in 6.2 mi East 9.2 mph - N/A   Scattered Clouds
9:00 AM 84.2 °F 90.9 °F 73.4 °F 70% 29.98 in 6.2 mi East 6.9 mph - N/A   Scattered Clouds
10:00 AM 86.0 °F 93.4 °F 73.4 °F 66% 29.98 in 6.2 mi ENE 11.5 mph - N/A   Scattered Clouds
11:00 AM 87 °F - 72 °F 53% 29.99 in 37 mi East 8.1 mph - -   Mostly Cloudy
11:00 AM 87.8 °F 93.8 °F 71.6 °F 58% 29.98 in 6.2 mi East 8.1 mph - N/A Rain Light Rain Showers
12:00 PM 89.6 °F 98.2 °F 73.4 °F 59% 29.95 in 6.2 mi East 9.2 mph - N/A   Scattered Clouds
1:00 PM 89.6 °F 96.2 °F 71.6 °F 55% 29.92 in 6.2 mi ESE 9.2 mph - N/A   Scattered Clouds
2:00 PM 90 °F - 71 °F 43% 29.92 in 19 mi East 8.1 mph - -   Partly Cloudy
2:00 PM 89.6 °F 94.7 °F 69.8 °F 52% 29.92 in 6.2 mi East 6.9 mph - N/A   Scattered Clouds
3:00 PM 87.8 °F 93.8 °F 71.6 °F 58% 29.92 in 6.2 mi East 9.2 mph - N/A   Scattered Clouds
4:00 PM 87.8 °F 95.6 °F 73.4 °F 62% 29.92 in 6.2 mi East 8.1 mph - N/A Thunderstorm Light Thunderstorm
5:00 PM 84 °F - 72 °F 61% 29.93 in 44 mi East 8.1 mph - - Thunderstorm Light Thunderstorm
5:00 PM 84.2 °F 90.9 °F 73.4 °F 70% 29.92 in 6.2 mi East 8.1 mph - N/A   Partly Cloudy
6:00 PM 84.2 °F 90.9 °F 73.4 °F 70% 29.92 in 6.2 mi East 8.1 mph - N/A   Partly Cloudy
7:00 PM 84.2 °F 90.9 °F 73.4 °F 70% 29.95 in 6.2 mi ENE 8.1 mph - N/A   Partly Cloudy
8:00 PM 83 °F - 73 °F 66% 29.97 in 31 mi East 8.1 mph - -   Partly Cloudy
8:00 PM 82.4 °F 88.2 °F 73.4 °F 74% 29.95 in 6.2 mi East 8.1 mph - N/A   Scattered Clouds
9:00 PM 82.4 °F 88.2 °F 73.4 °F 74% 29.95 in 6.2 mi East 5.8 mph - N/A   Scattered Clouds
10:00 PM 82.4 °F 89.5 °F 75.2 °F 79% 29.98 in 6.2 mi East 5.8 mph - N/A   Partly Cloudy
11:00 PM 82 °F - 73 °F 67% 29.97 in 28 mi ENE 5.8 mph - -   Partly Cloudy
11:00 PM 82.4 °F 88.2 °F 73.4 °F 74% 29.95 in 6.2 mi ENE 5.8 mph - N/A   Partly Cloudy